User: anonymous   Login
Location: Unspecified
(0.0000°N, 0.0000°E)
Time: 20:18:39
(UTC+00:00)
Language:

JUGNU - Orbit

View from above orbital plane
View from above orbital plane
View from above satellite
View from above satellite

Ground track
Ground track

The orbit data is extracted from the following two-line orbital elements,

1 37839U 11058B   18175.54341830  .00000310  00000-0  23468-4 0  9996
2 37839  19.9627 352.6449 0018957 328.1521  68.3382 14.12621939346417
Epoch (UTC): 24 June 2018 13:02:31
Eccentricity: 0.0018957
inclination: 19.9627°
perigee height: 837 km
apogee height: 864 km
right ascension of ascending node: 352.6449°
argument of perigee: 328.1521°
revolutions per day: 14.12621939
mean anomaly at epoch: 68.3382°
orbit number at epoch: 34641

The dashed part of the orbit path shows where the satellite is in the earth's shadow,  

DLR